الصفحة الرئيسية
METAR-TAF:

METAR-TAF

مطار :

مطار النجف الدولي

النجف, العراق

دائرة عرض: 31-59-23N, خط طول: 44-24-15E, ارتفاع: 31 متر

مراقبة الطقس الحالي

تاريخ ووقت الإصدار 36 دقيقة قبل الساعة 22:00UTC
ريح 5 عقدة من الشرق/الشمال الشرقي
درجة الحرارة 31°درجة مئوية
الرطوبة 29%
ضغط 998 hPa
الرؤية: 6000 متر

METAR: ORNI 242200Z 07005KT 6000 NSC 31/11 Q0998

زمن: 01:36 (22:36 UTC)


TAF: مفقودة

أرصاد الطقس والتوقعات من أكثر من 4000 مطار (تقارير الطقس للمطار METAR والتنبؤ بالطقس بالمطارTAF).

المحطات المتاحة هي النقط الصفراء والحمراء على الخريطة.

حرك المؤشر فوق النقطة لمعرفة اسم المحطة.

ثم انقر لمعرفة أرصاد وتوقعات الطقس.

لتغيير الخارطة: اضغط على الأزرار الخضراء مع رمز الصليب الأسود للتكبير. على الزر الأخضر مع شرطة للتصغير، أو على الأسهم الخضراء للخرائط المجاورة.


METAR-TAF: